DW9142 Weather Reports


time (UTC)temp
C
wind
direction
speed
KPH
gust
KPH
rain 1hr
cm
rain 24hr
cm
rain mn
cm
humidity
%
barometer
mb
20260510190059 25 0.0 0.0 0.00 0.43 0.00 51 1012.6
20260510184525 25 0.0 0.0 0.00 0.43 0.00 49 1012.7
20260510183020 26 0.0 0.0 0.00 0.43 0.00 45 1012.7
20260510181558 26 0.0 0.0 0.00 0.43 0.43 53 1012.7
20260510180105 25 0.0 0.0 0.00 0.43 0.43 52 1012.7
20260510174533 24 0.0 0.0 0.00 0.43 0.43 50 1012.8
20260510173029 25 0.0 0.0 0.00 0.43 0.43 51 1012.7
20260510171510 24 0.0 0.0 0.00 0.43 0.43 57 1012.7
20260510170002 23 0.0 0.0 0.00 0.43 0.43 59 1012.7
20260510164553 22 0.0 0.0 0.00 0.43 0.43 67 1012.9
20260510163055 21 0.0 0.0 0.00 0.43 0.43 67 1013.0
20260510161515 20 0.0 0.0 0.00 0.43 0.43 73 1012.9
20260510160011 20 0.0 0.0 0.00 0.43 0.43 73 1013.1
20260510154552 18 0.0 0.0 0.00 0.43 0.43 76 1013.4
20260510153058 17 0.0 0.0 0.00 0.43 0.43 81 1013.5
20260510151525 16 0.0 0.0 0.00 0.43 0.43 85 1013.6
20260510150025 15 0.0 0.0 0.00 0.43 0.43 90 1013.7
20260510144617 14 0.0 0.0 0.00 0.43 0.43 93 1013.7
20260510143106 13 0.0 0.0 0.00 0.43 0.43 95 1013.7
20260510141532 13 0.0 0.0 0.00 0.43 0.43 95 1013.6
20260510140032 12 0.0 0.0 0.00 0.43 0.43 95 1013.6
20260510134507 12 0.0 0.0 0.00 0.43 0.43 95 1013.5
20260510133002 12 0.0 0.0 0.00 0.43 0.43 95 1013.5
20260510131541 12 0.0 0.0 0.00 0.43 0.43 95 1013.6
20260510130036 11 0.0 0.0 0.00 0.43 0.43 95 1013.5
20260510124521 11 0.0 0.0 0.00 0.43 0.43 95 1013.2
20260510123011 11 0.0 0.0 0.00 0.43 0.43 95 1013.1
20260510121550 11 0.0 0.0 0.00 0.43 0.43 95 1013.1
20260510120045 11 0.0 0.0 0.00 0.43 0.43 95 1012.9
20260510114524 11 0.0 0.0 0.00 0.43 0.43 94 1012.7
20260510113019 11 0.0 0.0 0.00 0.43 0.43 95 1012.6
20260510111505 10 0.0 0.0 0.00 0.43 0.43 95 1012.6
20260510110100 10 0.0 0.0 0.00 0.43 0.43 95 1012.5
20260510104556 10 0.0 0.0 0.00 0.43 0.43 94 1012.2
20260510103051 10 0.0 0.0 0.00 0.43 0.43 95 1012.2
20260510101647 10 0.0 0.0 0.00 0.43 0.43 95 1012.0
20260510094551 9 0.0 0.0 0.00 0.43 0.43 94 1012.0
20260510093037 9 0.0 0.0 0.00 0.43 0.43 94 1012.0
20260510091520 8 0.0 0.0 0.00 0.43 0.43 94 1012.1
20260510090014 8 0.0 0.0 0.00 0.43 0.43 94 1011.7
20260510084510 8 0.0 0.0 0.00 0.43 0.43 94 1011.4
20260510083017 8 0.0 0.0 0.00 0.43 0.43 94 1011.2
20260510081503 8 0.0 0.0 0.00 0.43 0.43 94 1011.2
20260510080059 8 0.0 0.0 0.00 0.43 0.43 94 1011.2
20260510074553 8 0.0 0.0 0.00 0.43 0.43 94 1011.2
20260510073057 8 0.0 0.0 0.00 0.43 0.43 94 1011.1
20260510071531 8 0.0 0.0 0.00 0.43 0.43 94 1011.0
20260510070030 9 0.0 0.0 0.00 0.43 0.43 94 1010.9
20260510064506 9 0.0 0.0 0.00 0.43 0.43 94 1010.5
20260510063057 9 0.0 0.0 0.00 0.43 0.43 94 1010.5
20260510061536 9 0.0 0.0 0.00 0.43 0.43 94 1010.7
20260510060031 9 0.0 0.0 0.00 0.43 0.43 94 1010.8
20260510054510 9 0.0 0.0 0.00 0.43 0.43 94 1010.9
20260510053007 9 0.0 0.0 0.00 0.43 0.43 94 1011.0
20260510051547 9 0.0 0.0 0.00 0.43 0.43 94 1011.0
20260510050041 9 0.0 0.0 0.00 0.43 0.43 94 1011.1
20260510044528 9 0.0 0.0 0.00 0.43 0.43 93 1011.2
20260510043014 9 0.0 0.0 0.00 0.43 0.43 93 1011.3
20260510041553 9 0.0 0.0 0.00 0.43 0.43 93 1011.3
20260510040057 9 0.0 0.0 0.00 0.43 0.43 93 1011.3
20260510034529 9 0.0 0.0 0.00 0.43 0.43 93 1011.1
20260510033022 9 0.0 0.0 0.00 0.43 0.43 93 1011.0
20260510031501 10 0.0 0.0 0.00 0.43 0.43 93 1010.9
20260510024538 10 0.0 0.0 0.00 0.43 0.43 93 1010.9
20260510023033 10 0.0 0.0 0.00 0.43 0.43 93 1010.8
20260510021518 10 0.0 0.0 0.00 0.43 0.43 93 1010.7
20260510020012 10 0.0 0.0 0.00 0.43 0.43 92 1010.7
20260510014508 11 0.0 0.0 0.00 0.43 0.43 92 1010.8
20260510013004 11 0.0 0.0 0.00 0.43 0.43 92 1010.9
20260510011602 11 0.0 0.0 0.00 0.43 0.43 92 1010.7
20260510010059 11 0.0 0.0 0.00 0.43 0.43 92 1010.5
20260510004551 11 0.0 0.0 0.00 0.43 0.43 92 1010.3
20260510003046 12 0.0 0.0 0.00 0.43 0.43 92 1010.2
20260510001544 12 0.0 0.0 0.00 0.43 0.43 92 1010.2
20260510000027 12 0.0 0.0 0.00 0.43 0.43 92 1010.2
20260509234516 12 0.0 0.0 0.00 0.43 0.43 92 1010.2
20260509233054 13 0.0 0.0 0.00 0.43 0.43 92 1010.2
20260509231551 13 0.0 0.0 0.00 0.43 0.43 92 1010.1
20260509230033 13 0.0 0.0 0.00 0.43 0.43 91 1009.9
20260509224524 13 0.0 0.0 0.00 0.43 0.43 91 1010.0
20260509223003 13 0.0 0.0 0.08 0.43 0.43 91 1010.0
20260509221559 13 0.0 0.0 0.43 0.43 0.43 90 1010.2
20260509220039 13 0.0 0.0 0.43 0.43 0.43 90 1010.3
20260509214535 13 0.0 0.0 0.43 0.43 0.43 88 1010.7
20260509213013 14 0.0 0.0 0.36 0.36 0.36 85 1010.8
20260509211512 14 0.0 0.0 0.00 0.00 0.00 81 1011.2
20260509210053 15 0.0 0.0 0.00 0.00 0.00 77 1010.5
20260509204550 15 0.0 0.0 0.00 0.00 0.00 77 1010.3
20260509203020 15 0.0 0.0 0.00 0.00 0.00 76 1010.1
20260509201517 15 0.0 0.0 0.00 0.00 0.00 75 1010.3
20260509200107 15 0.0 0.0 0.00 0.00 0.00 77 1010.2
20260509194550 15 0.0 0.0 0.00 0.00 0.00 76 1010.3
20260509193030 15 0.0 0.0 0.00 0.00 0.00 75 1010.5
20260509191527 15 0.0 0.0 0.00 0.00 0.00 74 1010.8